Location: Boncourt
(49.6160°N, 3.9448°E)
Time: 19:45:36
(UTC+00:00)

Cosmos 1626 Rocket - Pass Details

Date: 09 February 2023
Orbit: 602 x 629 km, 82.5° (Epoch: 26 March)

Event Time Altitude Azimuth Distance (km) Brightness Sun altitude
Rises 17:39:42 0° 159° (SSE) 2,847 6.9 -8.1°
Reaches altitude 10° 17:42:07 10° 148° (SSE) 1,952 5.9 -8.5°
Maximum altitude 17:45:48 28° 89° (E) 1,150 4.4 -9.0°
Drops below altitude 10° 17:49:31 10° 30° (NNE) 1,978 5.8 -9.6°
Sets 17:51:59 0° 19° (NNE) 2,893 6.7 -10.0°
